Location: Ciserano
(45.5833°N, 9.6000°E)
Time: 07:58:08
(UTC+00:00)

Cosmos 1295 Rocket - Pass Details

Date: 18 April 2021
Orbit: 944 x 993 km, 82.9° (Epoch: 13 May)

Event Time Altitude Azimuth Distance (km) Brightness Sun altitude
Rises 00:56:07 0° 345° (NNW) 3,671 8.2 -29.6°
Reaches altitude 10° 00:58:44 10° 339° (NNW) 2,727 7.3 -29.4°
Enters shadow 01:03:40 41° 292° (WNW) 1,398 5.2 -29.0°
